When you browse on this site, cookies collect data to enhance your experience and personalize the content and advertising you see.
Visit our Privacy Policy to learn more. By continuing to use the site, you agree to this use of cookies and data.
  • Em Portugal
  • Lista de países
  • Para 7 dias
  • Temperatura da água
  • Mapas de satélite
  • Mapa do tempo
  • Widgets de tempo
  • user-avatar
    Iniciar Sessão

    Previsão horária em Szczytnica

    Hoje, 19 Dezembro, Quarta-feira

    Tempo Temperatura Precipitação Vento Pressão Humidade
    00:00 -1°C° 0 mm 3 m/s 752 mmHg 91%
    01:00 -1°C° 0 mm 3 m/s 752 mmHg 91%
    02:00 -1°C° 0 mm 3 m/s 751 mmHg 90%
    03:00 -1°C° 0 mm 3 m/s 751 mmHg 90%
    04:00 -2°C° 0 mm 3 m/s 750 mmHg 90%
    05:00 -2°C° 0 mm 3 m/s 750 mmHg 89%
    06:00 -3°C° 0 mm 4 m/s 750 mmHg 88%
    07:00 -3°C° 0 mm 4 m/s 750 mmHg 87%
    08:00 -2°C° 0 mm 4 m/s 750 mmHg 84%
    09:00 -1°C° 0 mm 4 m/s 749 mmHg 80%
    10:00 -1°C° 0 mm 5 m/s 749 mmHg 77%
    11:00 0°C° 0 mm 5 m/s 749 mmHg 75%
    12:00 0°C° 0 mm 4 m/s 749 mmHg 73%
    13:00 +1°C° 0 mm 4 m/s 748 mmHg 71%
    14:00 0°C° 0 mm 4 m/s 748 mmHg 73%
    15:00 0°C° 0 mm 4 m/s 748 mmHg 75%
    16:00 -1°C° 0 mm 4 m/s 748 mmHg 77%
    17:00 0°C° 0 mm 3 m/s 747 mmHg 77%
    18:00 0°C° 0 mm 3 m/s 747 mmHg 78%
    19:00 0°C° 0 mm 3 m/s 747 mmHg 78%
    20:00 0°C° 0.2 mm 3 m/s 747 mmHg 79%
    21:00 0°C° 0.2 mm 3 m/s 747 mmHg 80%
    22:00 0°C° 0.2 mm 3 m/s 747 mmHg 81%
    23:00 0°C° 0.3 mm 3 m/s 747 mmHg 82%

    Amanhã, 20 Dezembro, Quinta-feira

    Tempo Temperatura Precipitação Vento Pressão Humidade
    00:00 0°C° 0.3 mm 3 m/s 747 mmHg 83%
    01:00 0°C° 0.3 mm 3 m/s 747 mmHg 84%
    02:00 -1°C° 0.3 mm 3 m/s 747 mmHg 85%
    03:00 -1°C° 0.3 mm 3 m/s 747 mmHg 86%
    04:00 -1°C° 0.3 mm 3 m/s 747 mmHg 87%
    05:00 -1°C° 0.4 mm 3 m/s 746 mmHg 88%
    06:00 -1°C° 0.4 mm 3 m/s 746 mmHg 88%
    07:00 -1°C° 0.4 mm 2 m/s 746 mmHg 89%
    08:00 -1°C° 0.3 mm 3 m/s 746 mmHg 89%
    09:00 -1°C° 0.3 mm 3 m/s 747 mmHg 88%
    10:00 -1°C° 0.3 mm 3 m/s 747 mmHg 88%
    11:00 0°C° 0.3 mm 3 m/s 746 mmHg 88%
    12:00 0°C° 0.3 mm 3 m/s 746 mmHg 88%
    13:00 0°C° 0.3 mm 3 m/s 746 mmHg 88%
    14:00 0°C° 0.1 mm 3 m/s 746 mmHg 88%
    15:00 +1°C° 0.1 mm 3 m/s 746 mmHg 89%
    16:00 +1°C° 0.1 mm 3 m/s 746 mmHg 89%
    17:00 +1°C° 0 mm 3 m/s 746 mmHg 89%
    18:00 +1°C° 0 mm 3 m/s 746 mmHg 89%
    19:00 0°C° 0 mm 4 m/s 746 mmHg 88%
    20:00 0°C° 0 mm 4 m/s 746 mmHg 89%
    21:00 0°C° 0 mm 4 m/s 746 mmHg 89%
    22:00 +1°C° 0 mm 4 m/s 747 mmHg 89%
    23:00 0°C° 0 mm 4 m/s 746 mmHg 89%

    Depois de amanhã, 21 Dezembro, Sexta-feira

    Tempo Temperatura Precipitação Vento Pressão Humidade
    00:00 0°C° 0 mm 4 m/s 746 mmHg 89%
    01:00 0°C° 0 mm 4 m/s 746 mmHg 89%
    02:00 0°C° 0 mm 4 m/s 746 mmHg 89%
    03:00 0°C° 0 mm 4 m/s 746 mmHg 88%
    04:00 +1°C° 0 mm 4 m/s 745 mmHg 88%
    05:00 +1°C° 0.1 mm 4 m/s 745 mmHg 88%
    06:00 +1°C° 0.1 mm 4 m/s 745 mmHg 88%
    07:00 +1°C° 0.1 mm 4 m/s 745 mmHg 88%
    08:00 +1°C° 0 mm 4 m/s 744 mmHg 87%
    09:00 +1°C° 0 mm 4 m/s 744 mmHg 87%
    10:00 +2°C° 0 mm 5 m/s 743 mmHg 86%
    11:00 +2°C° 0.1 mm 5 m/s 743 mmHg 86%
    12:00 +2°C° 0.1 mm 5 m/s 742 mmHg 85%
    13:00 +2°C° 0.1 mm 5 m/s 741 mmHg 85%
    14:00 +2°C° 0.7 mm 5 m/s 740 mmHg 85%
    15:00 +2°C° 0.7 mm 6 m/s 739 mmHg 84%
    16:00 +2°C° 0.7 mm 6 m/s 738 mmHg 84%
    17:00 +3°C° 1 mm 6 m/s 737 mmHg 84%
    18:00 +4°C° 1 mm 6 m/s 737 mmHg 85%
    19:00 +5°C° 1 mm 7 m/s 736 mmHg 85%
    20:00 +5°C° 0.1 mm 7 m/s 736 mmHg 84%
    21:00 +5°C° 0.1 mm 7 m/s 736 mmHg 83%
    22:00 +5°C° 0.1 mm 6 m/s 736 mmHg 82%
    23:00 +5°C° 0.1 mm 6 m/s 737 mmHg 82%

    22 Dezembro, Sábado

    Tempo Temperatura Precipitação Vento Pressão Humidade
    00:00 +5°C° 0.1 mm 6 m/s 737 mmHg 82%
    01:00 +5°C° 0.1 mm 6 m/s 738 mmHg 81%
    02:00 +4°C° 0 mm 6 m/s 738 mmHg 82%
    03:00 +4°C° 0 mm 6 m/s 738 mmHg 82%
    04:00 +4°C° 0 mm 6 m/s 738 mmHg 82%
    05:00 +5°C° 0 mm 5 m/s 738 mmHg 82%
    06:00 +5°C° 0 mm 5 m/s 738 mmHg 82%
    07:00 +5°C° 0 mm 5 m/s 738 mmHg 82%
    08:00 +5°C° 0 mm 5 m/s 737 mmHg 83%
    09:00 +6°C° 0 mm 5 m/s 737 mmHg 84%
    10:00 +6°C° 0 mm 5 m/s 736 mmHg 85%
    11:00 +5°C° 1 mm 6 m/s 736 mmHg 85%
    12:00 +7°C° 1 mm 6 m/s 736 mmHg 84%
    13:00 +6°C° 1 mm 7 m/s 735 mmHg 84%
    14:00 +6°C° 0.2 mm 7 m/s 736 mmHg 83%
    15:00 +6°C° 0.2 mm 7 m/s 737 mmHg 83%
    16:00 +5°C° 0.2 mm 7 m/s 737 mmHg 83%
    17:00 +5°C° 0 mm 7 m/s 738 mmHg 82%
    18:00 +5°C° 0 mm 6 m/s 739 mmHg 81%
    19:00 +5°C° 0 mm 6 m/s 739 mmHg 81%
    20:00 +5°C° 0.1 mm 6 m/s 739 mmHg 80%
    21:00 +5°C° 0.1 mm 6 m/s 740 mmHg 80%
    22:00 +4°C° 0.1 mm 6 m/s 740 mmHg 79%
    23:00 +4°C° 0.4 mm 7 m/s 740 mmHg 80%

    23 Dezembro, Domingo

    Tempo Temperatura Precipitação Vento Pressão Humidade
    00:00 +5°C° 0.4 mm 8 m/s 741 mmHg 81%
    01:00 +5°C° 0.4 mm 8 m/s 742 mmHg 83%
    02:00 +4°C° 0.2 mm 8 m/s 742 mmHg 83%
    03:00 +4°C° 0.2 mm 7 m/s 743 mmHg 83%
    04:00 +4°C° 0.2 mm 6 m/s 743 mmHg 83%
    05:00 +4°C° 0.1 mm 6 m/s 744 mmHg 83%
    06:00 +4°C° 0.1 mm 6 m/s 744 mmHg 83%
    07:00 +3°C° 0.1 mm 6 m/s 744 mmHg 84%
    08:00 +3°C° 0.1 mm 6 m/s 745 mmHg 83%
    09:00 +4°C° 0.1 mm 6 m/s 745 mmHg 82%
    10:00 +4°C° 0.1 mm 6 m/s 745 mmHg 81%
    11:00 +4°C° 0.1 mm 6 m/s 745 mmHg 80%
    12:00 +4°C° 0.1 mm 6 m/s 745 mmHg 79%
    13:00 +4°C° 0.1 mm 6 m/s 745 mmHg 78%
    14:00 +4°C° 0.2 mm 6 m/s 745 mmHg 79%
    15:00 +4°C° 0.2 mm 6 m/s 746 mmHg 80%
    16:00 +4°C° 0.2 mm 6 m/s 746 mmHg 81%
    17:00 +3°C° 0.2 mm 6 m/s 746 mmHg 81%
    18:00 +3°C° 0.2 mm 6 m/s 746 mmHg 81%
    19:00 +3°C° 0.2 mm 7 m/s 746 mmHg 81%
    20:00 +3°C° 0.1 mm 7 m/s 747 mmHg 81%
    21:00 +3°C° 0.1 mm 7 m/s 747 mmHg 82%
    22:00 +3°C° 0.1 mm 7 m/s 748 mmHg 82%
    23:00 +3°C° 0.1 mm 6 m/s 748 mmHg 84%

    24 Dezembro, Segunda-feira

    Tempo Temperatura Precipitação Vento Pressão Humidade
    00:00 +3°C° 0.1 mm 6 m/s 748 mmHg 85%
    01:00 +3°C° 0.1 mm 5 m/s 749 mmHg 86%
    02:00 +2°C° 0.1 mm 5 m/s 749 mmHg 87%
    03:00 +3°C° 0.1 mm 4 m/s 749 mmHg 88%
    04:00 +3°C° 0.1 mm 4 m/s 749 mmHg 90%
    05:00 +3°C° 0.1 mm 3 m/s 750 mmHg 90%
    06:00 +3°C° 0.1 mm 3 m/s 750 mmHg 91%
    07:00 +3°C° 0.1 mm 3 m/s 750 mmHg 91%
    08:00 +3°C° 0.1 mm 3 m/s 751 mmHg 90%
    09:00 +3°C° 0.1 mm 3 m/s 751 mmHg 88%
    10:00 +3°C° 0.1 mm 4 m/s 752 mmHg 86%
    11:00 +4°C° 0.1 mm 4 m/s 752 mmHg 84%
    12:00 +4°C° 0.1 mm 4 m/s 752 mmHg 82%
    13:00 +3°C° 0.1 mm 5 m/s 752 mmHg 80%
    14:00 +4°C° 0.1 mm 4 m/s 752 mmHg 82%
    15:00 +4°C° 0.1 mm 4 m/s 753 mmHg 84%
    16:00 +3°C° 0.1 mm 3 m/s 753 mmHg 86%
    17:00 +3°C° 0.1 mm 3 m/s 753 mmHg 87%
    18:00 +3°C° 0.1 mm 3 m/s 753 mmHg 87%
    19:00 +3°C° 0.1 mm 3 m/s 753 mmHg 88%
    20:00 +2°C° 0 mm 3 m/s 753 mmHg 88%
    21:00 +2°C° 0 mm 3 m/s 753 mmHg 89%
    22:00 +3°C° 0 mm 2 m/s 754 mmHg 90%
    23:00 +3°C° 0 mm 2 m/s 753 mmHg 90%
    Mostrar mais